Waarnemingen

Advertentie
Mijn weer
Twenthe, Nederland (6290): temperatuur & dauwpunt: 18.10.2018 01:00:00 - 24.10.2018 01:00:00 (CEST)Twenthe, Nederland (6290): temperatuur 5cm: 18.10.2018 01:00:00 - 24.10.2018 01:00:00 (CEST)Twenthe, Nederland (6290): windsnelheid & windstoten: 18.10.2018 01:00:00 - 24.10.2018 01:00:00 (CEST)Twenthe, Nederland (6290): windrichting: 18.10.2018 01:00:00 - 24.10.2018 01:00:00 (CEST)Twenthe, Nederland (6290): luchtdruk: 18.10.2018 01:00:00 - 24.10.2018 01:00:00 (CEST)Twenthe, Nederland (6290): zicht: 18.10.2018 01:00:00 - 24.10.2018 01:00:00 (CEST)Twenthe, Nederland (6290): neerslag: 18.10.2018 01:00:00 - 24.10.2018 01:00:00 (CEST)
Datum & Tijd tt [°C] td [°C] tt 5cm [°C] ff [km/u] ff [kn] fx [km/u] fx [kn] dd ppp [hPa] vv [km] rr [mm]
24.10.2018 01:00:00 13,1 11,9 12,8 22 12 40 21 W 1019,3 5 -
24.10.2018 00:00:00 12,8 11,6 12,6 22 12 36 19 W 1019,8 6 0,0
23.10.2018 23:00:00 13,1 11,0 12,6 22 12 36 19 W 1020,1 13 0,0
23.10.2018 22:00:00 13,2 10,5 12,6 25 14 40 21 W 1020,5 12 0,0
23.10.2018 21:00:00 13,3 10,0 12,8 22 12 36 19 W 1020,5 12 0,0
23.10.2018 20:00:00 13,2 9,9 12,5 25 14 40 21 W 1020,7 12 0,0
23.10.2018 19:00:00 13,0 9,8 12,3 25 14 43 23 W 1020,6 13 0,0
23.10.2018 18:00:00 12,7 9,8 12,2 22 12 40 21 WNW 1020,3 10 0,0
23.10.2018 17:00:00 12,5 9,9 12,1 25 14 47 25 W 1020,0 9 0,0
23.10.2018 16:00:00 12,1 10,4 12,0 22 12 36 19 W 1020,0 5 0,1
23.10.2018 15:00:00 11,4 10,6 11,4 25 14 36 19 W 1020,1 4,0 0,3
23.10.2018 14:00:00 11,3 10,4 11,4 25 14 40 21 W 1020,9 2,2 0,5
23.10.2018 13:00:00 12,1 9,1 12,0 29 16 43 23 W 1021,0 7 0,0
23.10.2018 12:00:00 12,1 8,4 12,0 25 14 36 19 W 1021,8 15 0,0
23.10.2018 11:00:00 11,4 8,1 11,4 22 12 32 18 WZW 1022,2 15 0,0
23.10.2018 10:00:00 10,2 7,4 10,0 25 14 36 19 WZW 1023,0 18 0,0
23.10.2018 09:00:00 9,5 6,7 9,2 22 12 36 19 WZW 1023,5 19 0,0
23.10.2018 08:00:00 9,0 6,0 8,7 22 12 36 19 ZW 1024,0 25 0,0
23.10.2018 07:00:00 8,6 5,4 8,1 22 12 36 19 WZW 1024,8 27 0,0
23.10.2018 06:00:00 7,9 4,5 7,6 22 12 36 19 ZW 1025,3 30 0,0
23.10.2018 05:00:00 7,8 4,0 6,9 22 12 32 18 ZW 1026,3 32 0,0
23.10.2018 04:00:00 6,3 3,5 5,5 14 8 25 14 WZW 1028,5 25 0,0
23.10.2018 03:00:00 6,1 3,0 4,9 14 8 22 12 ZW 1028,6 29 0,0
23.10.2018 02:00:00 6,0 3,0 4,0 18 10 25 14 ZW 1029,7 26 0,0
23.10.2018 01:00:00 3,8 2,0 0,3 7 4 11 6 WZW 1031,7 21 0,0
23.10.2018 00:00:00 3,0 2,0 -1,1 7 4 11 6 ZZW 1032,2 21 0,0
22.10.2018 23:00:00 2,9 2,2 -2,2 4 2 7 4 Z 1032,8 17 0,0
22.10.2018 22:00:00 3,2 2,5 -0,9 4 2 4 2 Z 1033,0 16 0,0
22.10.2018 21:00:00 4,3 3,2 -0,3 4 2 7 4 Z 1032,9 19 0,0
22.10.2018 20:00:00 6,3 3,1 0,7 4 2 11 6 WNW 1033,4 27 0,0
22.10.2018 19:00:00 9,6 4,2 5,1 7 4 18 10 NNW 1032,9 28 0,0
22.10.2018 18:00:00 12,0 5,4 11,4 14 8 29 16 NNW 1032,6 26 0,0
22.10.2018 17:00:00 12,6 5,2 12,1 11 6 22 12 N 1032,9 33 0,0
22.10.2018 16:00:00 13,8 3,7 12,9 11 6 25 14 N 1032,4 33 0,0
22.10.2018 15:00:00 14,4 4,7 13,0 14 8 29 16 N 1032,2 30 0,0
22.10.2018 14:00:00 15,1 5,9 14,9 11 6 32 18 NNW 1032,0 31 0,0
22.10.2018 13:00:00 14,4 7,6 15,0 18 10 40 21 NNO 1032,1 28 0,0
22.10.2018 12:00:00 14,5 8,5 15,8 22 12 36 19 N 1031,8 38 0,0
22.10.2018 11:00:00 13,6 8,6 14,0 14 8 25 14 N 1031,4 36 0,0
22.10.2018 10:00:00 11,6 9,7 10,8 7 4 18 10 N 1030,7 28 0,0
22.10.2018 09:00:00 11,5 9,6 11,2 14 8 22 12 N 1029,8 26 0,0
22.10.2018 08:00:00 11,4 10,0 11,1 14 8 36 19 N 1028,6 27 0,4
22.10.2018 07:00:00 11,9 11,2 11,6 7 4 14 8 NW 1027,4 1,1 0,0
22.10.2018 06:00:00 11,8 8,9 11,6 7 4 14 8 WNW 1026,9 8 0,0
22.10.2018 05:00:00 11,1 7,7 10,5 4 2 7 4 ZW 1026,5 11 0,0
22.10.2018 04:00:00 11,0 7,8 10,4 4 2 11 6 WZW 1026,5 11 0,0
22.10.2018 03:00:00 11,0 7,0 10,1 4 2 11 6 ZW 1026,3 13 0,0
22.10.2018 02:00:00 11,4 7,2 10,7 4 2 7 4 ZW 1026,6 15 0,0
22.10.2018 01:00:00 11,0 7,4 10,3 4 2 7 4 ZZW 1026,7 13 0,0
22.10.2018 00:00:00 11,3 7,5 9,6 7 4 7 4 ZZW 1026,6 13 0,0
21.10.2018 23:00:00 9,4 8,0 8,7 4 2 7 4 ZZW 1026,8 12 0,0
21.10.2018 22:00:00 5,7 5,5 3,1 0 0 4 2 N 1026,5 6 0,0
21.10.2018 21:00:00 7,3 6,9 2,6 4 2 4 2 O 1026,7 4,9 0,0
21.10.2018 20:00:00 8,2 7,2 3,9 0 0 4 2 N 1026,6 8 0,0
21.10.2018 19:00:00 10,4 6,8 6,1 4 2 7 4 ZW 1026,6 21 0,0
21.10.2018 18:00:00 13,8 7,4 13,3 7 4 14 8 ZZW 1026,5 25 0,0
21.10.2018 17:00:00 15,3 7,7 15,7 7 4 18 10 ZZW 1026,9 27 0,0
21.10.2018 16:00:00 15,3 7,8 15,9 11 6 22 12 ZZW 1027,3 24 0,0
21.10.2018 15:00:00 15,7 7,8 16,5 11 6 22 12 Z 1027,8 22 0,0
21.10.2018 14:00:00 14,6 7,9 16,2 14 8 22 12 ZZW 1028,5 15 0,0
21.10.2018 13:00:00 13,8 8,1 15,1 14 8 22 12 Z 1029,1 11 0,0
21.10.2018 12:00:00 12,9 8,3 13,8 11 6 18 10 Z 1029,7 10 0,0
21.10.2018 11:00:00 11,4 8,1 11,9 11 6 14 8 Z 1030,0 8 0,0
21.10.2018 10:00:00 10,1 7,7 9,6 7 4 11 6 Z 1029,8 6 0,0
21.10.2018 09:00:00 7,3 6,8 4,5 4 2 7 4 Z 1029,4 2,2 0,0
21.10.2018 08:00:00 8,1 7,1 5,1 4 2 7 4 ZZO 1029,0 4,6 0,0
21.10.2018 07:00:00 8,8 7,4 8,3 4 2 7 4 Z 1028,9 6 0,0
21.10.2018 06:00:00 9,0 7,8 8,5 7 4 7 4 Z 1029,6 7 0,0
21.10.2018 05:00:00 8,5 7,5 7,9 0 0 7 4 N 1029,6 5 0,0
21.10.2018 04:00:00 9,0 7,9 8,7 4 2 7 4 Z 1029,8 9 0,0
21.10.2018 03:00:00 8,7 8,2 8,5 4 2 7 4 Z 1029,9 7 0,0
21.10.2018 02:00:00 7,9 7,4 7,6 0 0 4 2 N 1030,2 6 0,0
21.10.2018 01:00:00 7,0 6,6 6,0 0 0 7 4 N 1030,7 8 0,0
21.10.2018 00:00:00 4,3 4,2 1,7 7 4 7 4 ZZO 1030,8 2,0 0,0
20.10.2018 23:00:00 5,5 5,3 0,2 0 0 7 4 N 1031,0 0,2 0,0
20.10.2018 22:00:00 4,1 3,8 0,8 4 2 7 4 ZO 1031,1 0,3 0,0
20.10.2018 21:00:00 6,3 6,0 1,2 4 2 4 2 ZO 1031,0 0,7 0,0
20.10.2018 20:00:00 6,4 6,1 2,2 0 0 4 2 N 1030,8 0,5 0,0
20.10.2018 19:00:00 8,9 7,0 5,4 4 2 11 6 Z 1030,6 23 0,0
20.10.2018 18:00:00 12,8 7,5 11,9 7 4 14 8 NW 1030,7 36 0,0
20.10.2018 17:00:00 14,5 8,1 13,8 7 4 22 12 WNW 1030,6 33 0,0
20.10.2018 16:00:00 14,7 7,2 15,6 11 6 18 10 W 1030,7 33 0,0
20.10.2018 15:00:00 14,5 6,9 15,6 11 6 22 12 WZW 1030,9 36 0,0
20.10.2018 14:00:00 14,4 6,6 15,9 14 8 22 12 W 1031,1 33 0,0
20.10.2018 13:00:00 14,3 6,5 16,0 11 6 14 8 WZW 1031,5 22 0,0
20.10.2018 12:00:00 11,9 6,9 13,0 11 6 14 8 ZW 1031,3 16 0,0
20.10.2018 11:00:00 8,3 7,2 9,1 4 2 7 4 ZW 1031,3 7 0,0
20.10.2018 10:00:00 5,5 5,0 4,9 7 4 7 4 ZZO 1031,1 3,3 0,0
20.10.2018 09:00:00 1,6 1,4 -0,3 0 0 4 2 N 1030,5 1,9 0,0
20.10.2018 08:00:00 0,4 0,0 -2,2 0 0 11 6 N 1030,0 0,4 0,0
20.10.2018 07:00:00 0,4 0,3 -2,8 0 0 4 2 N 1029,7 0,1 0,0
20.10.2018 06:00:00 -0,2 -0,5 -3,4 0 0 4 2 N 1029,2 0,2 0,0
20.10.2018 05:00:00 1,6 1,4 -2,9 4 2 4 2 NNO 1028,5 0,2 0,0
20.10.2018 04:00:00 1,7 1,2 -1,5 0 0 4 2 N 1028,2 0,9 0,0
20.10.2018 03:00:00 2,9 2,5 1,0 4 2 7 4 Z 1028,2 6 0,0
20.10.2018 02:00:00 2,0 1,8 -2,4 4 2 4 2 NO 1028,0 0,6 0,0
20.10.2018 01:00:00 2,0 1,7 -2,2 0 0 4 2 N 1027,6 0,1 0,0
20.10.2018 00:00:00 2,9 2,7 -1,4 0 0 4 2 N 1027,6 0,2 0,0
19.10.2018 23:00:00 3,1 3,0 -1,6 4 2 7 4 NO 1027,2 0,4 0,0
19.10.2018 22:00:00 4,1 3,9 -0,9 4 2 4 2 N 1026,9 0,9 0,0
19.10.2018 21:00:00 4,5 4,1 -0,2 4 2 7 4 N 1026,5 12 0,0
19.10.2018 20:00:00 6,5 5,6 1,2 4 2 7 4 NO 1026,2 19 0,0
19.10.2018 19:00:00 7,7 5,7 4,0 4 2 7 4 ONO 1025,4 17 0,0
19.10.2018 18:00:00 12,6 6,5 11,3 7 4 14 8 ONO 1025,1 39 0,0
19.10.2018 17:00:00 14,0 6,5 14,4 7 4 18 10 ONO 1024,7 36 0,0
19.10.2018 16:00:00 14,4 6,3 15,8 11 6 18 10 NO 1025,0 39 0,0
19.10.2018 15:00:00 14,9 6,8 14,9 11 6 22 12 ONO 1025,2 33 0,0
19.10.2018 14:00:00 14,4 6,6 16,8 11 6 25 14 ONO 1025,4 36 0,0
19.10.2018 13:00:00 13,1 6,3 14,6 18 10 25 14 ONO 1025,8 32 0,0
19.10.2018 12:00:00 12,0 6,8 12,6 11 6 25 14 ONO 1026,1 28 0,0
19.10.2018 11:00:00 10,6 6,6 11,2 14 8 18 10 ONO 1026,3 26 0,0
19.10.2018 10:00:00 9,6 6,8 10,0 14 8 22 12 NO 1026,4 20 0,0
19.10.2018 09:00:00 7,8 6,3 6,8 14 8 22 12 NO 1026,2 15 0,0
19.10.2018 08:00:00 7,2 5,4 5,9 11 6 18 10 NO 1025,9 17 0,0
19.10.2018 07:00:00 8,6 6,4 8,0 11 6 14 8 ONO 1025,7 21 0,0
19.10.2018 06:00:00 7,8 6,0 5,9 7 4 11 6 NO 1025,7 27 0,0
19.10.2018 05:00:00 9,0 6,6 7,9 7 4 14 8 NO 1025,6 31 0,0
19.10.2018 04:00:00 7,9 6,1 6,2 7 4 7 4 NO 1025,8 30 0,0
19.10.2018 03:00:00 7,9 5,8 4,4 7 4 11 6 NNO 1025,8 35 0,0
19.10.2018 02:00:00 9,5 6,2 8,9 11 6 14 8 NO 1025,8 36 0,0
19.10.2018 01:00:00 9,9 6,2 9,4 11 6 18 10 NO 1026,0 45 0,0
19.10.2018 00:00:00 9,9 6,4 8,8 14 8 18 10 NO 1026,3 40 0,0
18.10.2018 23:00:00 8,7 6,4 5,8 7 4 18 10 NO 1026,4 42 0,0
18.10.2018 22:00:00 9,1 5,8 6,9 11 6 18 10 NO 1026,2 47 0,0
18.10.2018 21:00:00 9,3 6,4 7,1 11 6 18 10 NNO 1026,0 47 0,0
18.10.2018 20:00:00 10,5 7,0 8,7 11 6 22 12 NO 1025,6 45 0,0
18.10.2018 19:00:00 12,2 7,7 11,3 14 8 32 18 NNO 1025,1 49 0,0
18.10.2018 18:00:00 14,7 8,2 14,3 14 8 25 14 N 1024,4 45 0,0
18.10.2018 17:00:00 15,7 9,8 15,5 14 8 22 12 NO 1024,3 28 0,0
18.10.2018 16:00:00 15,4 9,5 15,8 18 10 29 16 NNO 1024,5 31 0,0
18.10.2018 15:00:00 15,5 9,8 15,6 22 12 29 16 N 1024,4 26 0,0
18.10.2018 14:00:00 15,6 11,1 16,4 14 8 29 16 N 1024,5 22 0,0
18.10.2018 13:00:00 14,0 11,6 14,4 14 8 29 16 N 1024,8 14 0,0
18.10.2018 12:00:00 13,8 12,7 14,2 14 8 25 14 N 1024,6 11 0,3
18.10.2018 11:00:00 13,1 12,7 13,3 7 4 11 6 N 1024,2 2,5 0,0
18.10.2018 10:00:00 12,3 11,9 12,6 4 2 7 4 NNW 1024,0 2,9 0,3
18.10.2018 09:00:00 11,2 10,8 11,0 4 2 14 8 NW 1023,6 1,5 0,0
18.10.2018 08:00:00 10,4 10,2 9,6 4 2 7 4 NNW 1023,0 3,1 0,0
18.10.2018 07:00:00 9,3 9,1 5,3 0 0 7 4 N 1022,7 0,1 0,0
18.10.2018 06:00:00 8,7 8,6 5,0 4 2 7 4 NNW 1022,6 0,1 0,0
18.10.2018 05:00:00 11,9 10,8 10,3 4 2 7 4 NNW 1022,3 10 0,0
18.10.2018 04:00:00 13,0 11,4 12,3 7 4 11 6 NNW 1022,2 11 0,0
18.10.2018 03:00:00 12,7 11,8 12,2 4 2 4 2 NNW 1022,2 8 0,0
18.10.2018 02:00:00 12,6 11,9 12,0 4 2 7 4 N 1022,1 7 0,0
18.10.2018 01:00:00 12,2 11,7 11,5 4 2 7 4 N 1021,7 7 0,0

tt = temperatuur
td = dauwpunt
tt 5cm = temperatuur 5cm
ff = windsnelheid
fx = windstoten
dd = windrichting
ppp = luchtdruk
vv = zicht
rr = neerslag

Weerstations in de omgeving